Weather History for NW Arkansas Airport, AR

Change the Weather History Date:

Wednesday, January 2, 2013

  Actual Average Record
Temperature  
Mean Temperature 27 °F -  
Max Temperature 33 °F - - ()
Min Temperature 21 °F - - ()
Degree Days  
Heating Degree Days 38    
Moisture  
Dew Point 21 °F    
Average Humidity 86    
Maximum Humidity 96    
Minimum Humidity 61    
Precipitation  
Precipitation 0.00 in - - ()
Sea Level Pressure  
Sea Level Pressure 30.26 in    
Wind  
Wind Speed 2 mph (SW)    
Max Wind Speed 6 mph    
Max Gust Speed -    
Visibility 8 miles    
Events      
T = Trace of Precipitation, MM = Missing Value Source: NWS Daily Summary

Daily Weather History Graph

Daily Weather History Graph

Search for Another Location

Airport:

Trip Planner

Search our weather history database for the weather conditions in past years. The results will help you decide how hot, cold, wet, or windy it might be!

Date:

Astronomy

Jan. 02, 2013 Rise Set
Actual Time 7:28 AM CST 5:14 PM CST
Civil Twilight 7:00 AM CST 5:42 PM CST
Nautical Twilight 6:28 AM CST 6:14 PM CST
Astronomical Twilight 5:56 AM CST 6:46 PM CST
Moon 10:37 PM CST (1/2) 10:20 AM CST (1/2)
Length of Visible Light 10h 42m
Length of Day
9h 45m
Waning Gibbous, 75% of the Moon is Illuminated
Jan 2
Waning Gibbous
Jan 4
Last Quarter
Jan 11
New
Jan 18
First Quarter
Jan 26
Full

Hourly Weather History & Observations

Time (CST) Temp. Windchill Dew Point Humidity Pressure Visibility Wind Dir Wind Speed Gust Speed Precip Events Conditions
12:53 AM 24.1 °F - 23.0 °F 96% 30.26 in 5.0 mi Calm Calm - N/A   Overcast
1:53 AM 23.0 °F - 21.9 °F 96% 30.28 in 6.0 mi Calm Calm - N/A   Overcast
2:53 AM 23.0 °F - 21.0 °F 92% 30.28 in 6.0 mi Calm Calm - N/A   Overcast
3:53 AM 23.0 °F 18.4 °F 21.0 °F 92% 30.27 in 7.0 mi NNE 3.5 mph - N/A   Overcast
4:53 AM 21.9 °F - 19.9 °F 92% 30.27 in 7.0 mi Calm Calm - N/A   Overcast
6:53 AM 21.0 °F - 19.9 °F 96% 30.27 in 7.0 mi Calm Calm - N/A   Overcast
7:53 AM 21.0 °F 16.2 °F 19.9 °F 96% 30.26 in 5.0 mi SSE 3.5 mph - N/A   Overcast
8:53 AM 21.0 °F 14.6 °F 19.9 °F 96% 30.28 in 6.0 mi SSW 4.6 mph - N/A   Overcast
9:53 AM 23.0 °F 15.8 °F 21.9 °F 96% 30.29 in 8.0 mi South 5.8 mph - N/A   Mostly Cloudy
10:07 AM 23.0 °F - 21.2 °F 93% 30.25 in 7.0 mi Calm Calm - N/A   Scattered Clouds
10:15 AM 24.8 °F 20.5 °F 23.0 °F 93% 30.25 in 8.0 mi SSW 3.5 mph - N/A   Mostly Cloudy
10:49 AM 26.6 °F 20.0 °F 24.8 °F 93% 30.25 in 8.0 mi South 5.8 mph - N/A   Partly Cloudy
10:53 AM 27.0 °F 20.5 °F 24.1 °F 89% 30.29 in 8.0 mi South 5.8 mph - N/A   Partly Cloudy
11:53 AM 28.9 °F 22.8 °F 24.1 °F 82% 30.25 in 7.0 mi WSW 5.8 mph - N/A   Clear
12:53 PM 30.9 °F 25.2 °F 23.0 °F 72% 30.23 in 10.0 mi West 5.8 mph - N/A   Clear
1:53 PM 32.0 °F 27.5 °F 21.0 °F 64% 30.21 in 10.0 mi Variable 4.6 mph - N/A   Clear
2:53 PM 32.0 °F 26.4 °F 21.0 °F 64% 30.21 in 10.0 mi SSW 5.8 mph - N/A   Clear
3:53 PM 33.1 °F 27.7 °F 21.0 °F 61% 30.22 in 10.0 mi SSW 5.8 mph - N/A   Clear
5:53 PM 28.9 °F 25.2 °F 19.0 °F 67% 30.23 in 10.0 mi WSW 3.5 mph - N/A   Clear
6:53 PM 26.1 °F 20.5 °F 19.9 °F 78% 30.25 in 10.0 mi WSW 4.6 mph - N/A   Clear
7:53 PM 26.1 °F 20.5 °F 21.0 °F 81% 30.27 in 10.0 mi WSW 4.6 mph - N/A   Clear
8:53 PM 24.1 °F 18.2 °F 21.0 °F 88% 30.28 in 10.0 mi SSW 4.6 mph - N/A   Clear
9:53 PM 25.0 °F 20.7 °F 21.0 °F 85% 30.28 in 10.0 mi SW 3.5 mph - N/A   Clear
11:53 PM 21.0 °F 14.6 °F 19.9 °F 96% 30.29 in 7.0 mi SSW 4.6 mph - N/A   Clear